Regional Weather Roundup
Issued by NWS Wakefield, VA

Home | Current Version | Previous Version | Graphics & Text | Print | Product List | Glossary On
Versions: 1 2 3 4 5 6 7 8 9 10 11 12 13 14 15 16 17 18 19 20 21 22 23 24 25 26 27
000
ASUS41 KAKQ 241515
RWRAKQ

REGIONAL WEATHER ROUNDUP
NATIONAL WEATHER SERVICE WAKEFIELD VA
1100 AM EDT SAT JUN 24 2017

Note: "fair" indicates few or no clouds below 12,000 feet with no
significant weather and/or obstructions to visibility. * = Denotes
station may not report precipitation (e.g., rain,snow,etc.),
thunder or fog.

VAZ042-051-052>054-056-241600-
NORTHERN VIRGINIA

CITY           SKY/WX    TMP DP  RH WIND       PRES   REMARKS
WASH NATIONAL  CLOUDY    82  64  54 NW20G26   29.85R
DULLES         MOSUNNY   81  64  56 NW17      29.86R
FORT BELVOIR   MOSUNNY   83  64  52 W14G21    29.84R
QUANTICO       LGT RAIN  85  65  51 NW14      29.86R
FREDERICKSBRG* MOSUNNY   84  65  54 W9G17     29.86R
STAFFORD*      MOSUNNY   83  66  56 W6        29.90R
WARRENTON      PTSUNNY   84  61  44 NW13      29.86R
CULPEPER*      MOSUNNY   82  65  54 NW7       29.88R
MANASSAS*      MOSUNNY   83  66  56 W17       29.86R
LEESBURG*      MOSUNNY  N/A N/A N/A NW15G22   29.88R
WINCHESTER     PTSUNNY   75  59  57 W16       29.90R
FRONT ROYAL*   MOSUNNY   79  55  44 NW12      29.89R
LURAY*         MOSUNNY   79  61  53 W13       29.91R
$$

VAZ048-049-060>072-079>083-241600-
CENTRAL AND SOUTH CENTRAL VIRGINIA

CITY           SKY/WX    TMP DP  RH WIND       PRES   REMARKS
RICHMOND       MOSUNNY   85  64  49 NW15      29.88R
CHESTERFIELD*  FAIR      84  67  56 W12G17    29.90R
PETERSBURG*    SUNNY     83  63  50 CALM      29.90R
HANOVER        SUNNY     84  63  49 W9        29.89R
TAPPAHANNOCK*  SUNNY     84  57  40 W10G16    29.87R
QUINTON*       FAIR      84  66  54 NW8       29.87R
CHARLOTTSVILLE SUNNY     83  64  52 VRB6      29.89R
GORDONSVILLE*  SUNNY     82  65  55 W6        29.88R
ORANGE*        SUNNY     81  63  54 W10       29.88R
LOUISA*        MOSUNNY   84  70  61 W10       29.88R
BUMPASS*       FAIR      81  67  62 W10G21    29.88R
FARMVILLE*     SUNNY     83  58  42 W6        29.91R
CREWE*         FAIR      82  58  43 W10G18    29.92R
FORT PICKETT*  FAIR      82  58  44 W14       29.92R
CHASE CITY*    FAIR      81  65  59 W6        29.94R
CLARKSVILLE*   FAIR      82  64  54 W7        29.94R
SOUTH HILL*    SUNNY     81  66  60 W7        29.99R
LAWRENCEVILLE* FAIR      83  66  57 W8        29.92R
EMPORIA*       SUNNY     82  64  54 SW12G17   29.92R
$$

VAZ088>098-241600-
SOUTHEAST VIRGINIA

CITY           SKY/WX    TMP DP  RH WIND       PRES   REMARKS
NORFOLK        MOSUNNY   86  68  54 VRB5      29.87R
VIRGINIA BEACH MOSUNNY   85  70  60 NW13G21   29.87R
NORFOLK NAVAL  MOSUNNY   86  67  52 W9G16     29.89R
WEST POINT*    SUNNY     85  64  49 W9        29.88R
SALUDA*        FAIR      83  70  65 W7        29.86R
NEWPORT NEWS   MOSUNNY   84  69  60 W15G21    29.88R
LANGLEY AFB    MOSUNNY   85  71  63 SW14      29.87R
FORT EUSTIS    SUNNY     86  70  58 W9        29.86R
WILLIAMSBURG*  SUNNY     88  68  51 W7G16     29.88R
HR EXEC AP*    FAIR      84  70  61 W8        29.86R
FRANKLIN*      SUNNY     84  66  54 W10       29.90R
US460-WAKEFLD  SUNNY     85  66  53 W12       29.89R
$$

VAZ020-022-025-037-045-241600-
WEST CENTRAL AND SOUTHWEST VIRGINIA

CITY           SKY/WX    TMP DP  RH WIND       PRES   REMARKS
STAUNTON*      PTSUNNY   76  62  62 W5        29.95R
WAYNESBORO*    SUNNY     75  63  66 W12G21    29.95R
HOT SPRINGS VA SUNNY     64  48  55 W16G23    30.05R
LYNCHBURG      SUNNY     79  64  60 W9G16     29.95R
DANVILLE       SUNNY     82  68  62 W6        29.95R
SOUTH BOSTON*  FAIR      82  64  53 W5        29.94R
MARTINSVILLE   SUNNY     80  65  60 CALM      29.99R
ROANOKE        PTSUNNY   78  63  59 NW10      29.98R
BLACKSBURG     CLOUDY    72  63  74 NW8       30.05R
DUBLIN*        CLOUDY    76  60  57 W10       30.03S
MARION*        CLOUDY    70  63  80 W9        30.07R
HILLSVILLE*    PTSUNNY   73  60  62 W10G20    30.05R
RICHLANDS*     CLOUDY    67  65  93 SW3       30.06S
WISE*          CLOUDY    70  68  94 CALM      30.07R
ABINGDON*      CLOUDY    72  68  88 CALM      30.03S
$$

MDZ021>025-VAZ099-100-241600-
SOUTHERN MARYLAND AND THE DELMARVA PENINSULA

CITY           SKY/WX    TMP DP  RH WIND       PRES   REMARKS
PATUXENT RIVER PTSUNNY   84  65  52 NW16G28   29.83R
BAY BRIDGE APT MOSUNNY   82  66  57 NW15G30   29.82R
LEONARDTOWN    PTSUNNY   81  64  57 W13G21    29.86R
DOVER          MOSUNNY   81  73  77 W18G24    29.77R
GEORGETOWN     LGT RAIN  82  67  60 W14G25    29.80R
EASTON         SUNNY     82  66  57 NW15      29.85R
CAMBRIDGE      MOSUNNY   82  68  61 NW13G26   29.82R
SALISBURY      PTSUNNY   81  68  64 W18G28    29.82R
OCEAN CITY     PTSUNNY   80  69  69 W16G26    29.82R
WALLOPS ISLAND MOSUNNY   83  69  62 W13G23    29.84R
ACCOMACK*      SUNNY     83  70  65 W13       29.86R
$$

NCZ012>017-030>032-241600-
NORTH CENTRAL AND EASTERN NORTH CAROLINA

CITY           SKY/WX    TMP DP  RH WIND       PRES   REMARKS
ROANOKE RAPIDS FAIR      82  68  61 W12G17    29.92R
RALEIGH        PTSUNNY   85  71  63 SW8       29.95R
ELIZABETH CITY MOSUNNY   87  73  62 W15G23    29.90R
AHOSKIE*         N/A     82  69  64 CALM      29.92R
EDENTON*       MOSUNNY   86  73  65 W12       29.92R
CURRITUCK*     CLOUDY    85  71  62 W13       29.90R
KILL DEVIL HLS MOSUNNY   85  72  65 W15G25    29.90R
MANTEO         PTSUNNY   83  73  70 W15       29.92R
CAPE HATTERAS  MOSUNNY   83  75  77 SW16G28   29.95R
TARBORO*       NOT AVBL
GOLDSBORO      PTSUNNY   86  78  77 W14       29.93R HX  99
WASHINGTON     MOSUNNY  N/A N/A N/A W10       29.93R
GREENVILLE     CLOUDY    84  73  70 W6        29.95S
NEW BERN       PTSUNNY   86  75  69 W13       29.95R HX  95
WILMINGTON     MOSUNNY   89  73  59 W17G24    29.97R HX  97
$$

VAZ048-241600-
ELSEWHERE

CITY           SKY/WX    TMP DP  RH WIND       PRES   REMARKS
HARRISBURG PA  MOSUNNY   81  62  52 NW13G21   29.80R
BALTIMORE      MOSUNNY   81  65  58 W18G25    29.82R
ANNAPOLIS      PTSUNNY   80  68  66 NW10      29.83R
ANDREWS AFB    CLOUDY    81  63  54 W15G24    29.84R
PHILADELPHIA   PTSUNNY   82  66  58 NW18G28   29.75R
HENDERSON NC   SUNNY     80  63  56 W5        29.95R
GREENSBORO     PTSUNNY   82  70  66 W9        29.96R
ROCKY MOUNT    SUNNY     85  71  63 SW8       29.93R
$$

VAZ100-241600-
MARINE

STATION/POSITION TIME  TEMP    WIND        PRES    WAVE   SWELL
                       AIR SEA DIR/SP/G            HT/PER HT/PER
                 (UTC) (F)     (DEG/KT/KT) (MB)    (FT/S) (FT/S)
BRANDYWINE LGT   1436   76     300/ 20/ 23 1008.4R
CAPE MAY NJ      1448   78 69  290/ 10/ 17 1008.0R
LEWES DE         1448   77 67  300/ 18/ 21 1008.4R
15NM E FENWICK I 1450   69 66  250/ 10/ 12 1009.4R   6/ 8   5/ 8
WACHAPREAGUE VA  1448   83 80  270/  4/ 11 1010.7R
THOMAS POINT MD  1500   79 77  320/ 17/ 20   N/A
GOOSES REEF MD   1450   80     310/ 16/ 19 1010.9R
COVE POINT MD    1448   80     330/ 16/ 24 1010.8R
SOLOMONS ISLAND  1448   81 76  290/ 10/ 17   N/A
BISHOPS HEAD MD  1448   80 80  290/ 15/ 19 1010.6R
PINEY POINT MD   1442          320/ 14/ 15   N/A
POTOMAC MD       1450   80     300/ 10/ 12 1009.6R
CAMBRIDGE MD     1448   83 81              1010.7R
LEWISETTA VA     1448   82 78  280/ 10/ 17 1010.6R
RAPPAHANNOCK LGT 1442          250/  6/  7 1011.6R
STINGRAY PT      1450   80     310/ 10/ 14 1011.7R
YORK RVR RNG VA  1448   82     290/ 13/ 16 1011.4R
YORKTOWN VA      1448   83 77  270/ 10/ 16 1011.1R
JAMESTOWN VA     1450   82     270/ 10/ 12   N/A
DOMINION TERM VA 1448   81     280/  6/  8 1011.8R
KIPTOPEKE VA     1448      76  210/  5/  6   N/A
CHES BAY BRIDGE  1448   79 71  280/ 13/ 14 1011.4R
CAPE HENRY VA    1448   83     280/ 14/ 18   N/A
WILLOUBY STN VA  1448   81     270/ 13/ 15 1011.5R
S CRANEY ISL VA  1448   84     300/  7/ 11 1011.5R
CAPE HENRY BUOY  1430      70                N/A     4/ 6
1ST LANDING BUOY 1450   79                 1011.4R
CAPE CHARLES BUO 1451      67                N/A     3/ 6
64NM E OF VA BCH 1450   74 71  240/ 16/ 17 1012.3R   7/ 7   3/10
DUCK PIER NC     1448   82 60  260/ 19/ 22 1012.3R
44100 DUCK FRF   1405      69                N/A     4/ 4
OREGON INLET NC  1442   83 80  240/ 16/ 20 1012.7R
HATTERAS NC      1448   81 78  230/ 14/ 20 1013.9R
DIAMOND SHLS NC  1450   80 80  240/ 23/ 27 1013.9R   9/ 8   2/11
CAPE LOOKOUT NC  1400   82     230/ 14/ 21 1013.9R
$$




USA.gov is the U.S. government's official web portal to all federal, state and local government web resources and services.